Wind_Speed
33 35 33 26 21 19 18 19 19 22 27 28 27 25 22 21 18 19 20 20 20 19 18 15 13 14 16 20 22 18 17 18 15 15 15 12 9 10 9 7 6 5 2 1 2 3 3 3 3 4 8 11 13 14 14 14 15 15 18 19 19 20 20 20 20 19 18 17 16 15 14 14 13 13 12 12 12 12 11 11 10 9 8 8 7 7
38 38 29 22 21 22 21 21 21 23 27 28 28 26 24 23 21 21 21 21 21 21 18 15 15 13 11 17 23 22 20 18 15 15 16 12 9 12 11 8 7 5 2 2 2 2 3 3 3 3 6 9 12 14 15 15 16 16 18 20 21 21 21 21 21 21 20 19 17 16 15 14 14 13 13 12 12 12 12 11 10 9 8 8 7 7
41 34 23 22 25 26 25 25 24 24 27 28 29 29 28 25 23 24 25 23 22 21 20 18 18 15 9 15 22 22 20 17 16 17 17 13 12 14 13 10 8 6 3 3 2 2 3 3 3 2 4 8 12 15 16 17 17 16 18 20 21 22 22 23 22 21 20 18 16 15 14 13 13 13 13 13 13 12 12 11 10 9 8 7 7 7
35 24 21 27 29 28 28 27 27 27 29 29 30 31 29 25 24 26 27 26 22 21 19 15 14 13 10 17 23 22 19 18 18 19 19 16 14 15 14 12 9 7 4 3 3 2 2 3 3 2 4 7 11 15 16 17 16 15 17 20 22 23 23 23 22 21 19 16 15 14 13 13 12 13 13 13 13 13 12 10 9 9 8 7 7 6
28 20 25 33 31 30 30 30 31 31 29 28 30 30 28 26 24 26 27 27 26 24 20 15 14 16 16 21 25 21 19 19 19 21 22 20 16 15 16 13 10 9 6 4 3 2 1 2 3 2 3 6 10 14 17 17 17 16 17 20 23 25 25 24 23 21 18 15 14 13 13 12 12 13 13 13 13 13 12 11 10 9 8 7 6 6
28 25 32 35 34 34 33 32 32 30 29 28 28 26 26 27 25 26 29 30 30 28 23 20 21 22 21 24 27 23 22 22 21 23 23 21 18 17 16 13 12 11 8 6 4 3 2 2 3 2 2 5 8 13 17 19 19 18 18 20 23 25 25 25 23 21 18 17 15 15 15 15 15 15 15 14 13 13 12 11 10 10 9 8 7 6
31 30 36 38 38 36 34 34 32 31 31 28 24 23 26 29 27 28 32 34 33 29 25 24 25 24 25 28 28 24 25 24 21 22 21 19 18 20 18 14 14 13 9 7 5 3 3 3 4 3 4 6 9 12 16 19 20 19 19 20 22 24 25 24 23 21 19 18 17 17 17 16 16 15 14 13 12 13 12 12 12 11 10 9 7 5
35 34 38 39 38 37 36 34 31 31 31 25 22 24 28 30 29 30 34 36 34 29 29 29 24 23 28 30 27 24 25 24 22 21 21 20 19 20 19 16 16 15 12 10 7 4 3 4 6 5 5 7 10 12 15 18 20 19 19 20 22 23 24 23 22 20 19 18 18 17 16 15 14 13 13 13 13 14 14 14 13 12 10 8 7 5
36 37 38 38 38 38 35 30 28 31 30 24 23 26 28 30 30 32 36 37 35 33 34 32 26 26 29 28 26 26 27 27 25 22 20 20 21 20 20 19 18 18 16 13 10 7 5 5 7 7 7 9 10 12 15 19 21 20 20 20 22 23 23 22 21 20 19 18 18 17 16 14 13 13 13 13 13 14 14 13 12 10 9 8 7 6
39 39 39 39 39 37 34 30 29 33 30 25 26 27 29 31 32 36 40 39 39 40 38 33 30 30 30 29 28 30 31 29 26 23 19 18 20 21 20 20 21 21 19 14 10 8 7 6 8 8 7 8 10 12 16 20 22 22 20 20 21 22 22 22 21 20 19 18 17 16 15 13 12 13 13 13 13 12 12 11 10 9 8 8 7 6
44 43 43 42 39 36 34 33 32 33 31 27 29 30 31 34 36 40 43 41 43 46 41 35 32 31 32 33 34 35 32 27 23 22 21 18 18 19 18 21 25 25 20 15 11 10 8 8 7 6 5 7 9 12 15 19 22 21 20 20 21 22 22 22 21 20 19 18 17 16 15 13 13 13 13 13 12 11 11 10 9 9 8 7 7 6
50 49 47 44 40 38 37 37 36 35 33 32 33 33 34 37 39 43 46 45 49 50 42 37 35 35 37 37 36 36 30 24 21 21 21 19 18 17 16 21 27 26 20 16 14 12 10 8 5 4 6 8 10 11 14 17 20 20 20 19 20 21 21 21 20 20 18 17 17 16 14 13 13 13 13 12 12 11 10 10 9 9 8 7 6 6
54 52 49 45 41 40 40 40 39 38 37 36 37 37 38 41 43 47 49 50 53 50 41 38 38 40 40 35 34 34 29 25 24 20 18 17 18 19 15 18 25 25 20 18 16 15 12 8 5 6 8 10 11 12 15 17 19 20 20 19 19 20 20 21 20 19 18 17 17 16 15 14 13 14 13 12 11 10 10 11 10 9 8 7 7 6
53 52 52 49 44 43 43 43 44 44 42 40 40 40 41 42 45 47 48 50 50 44 38 39 41 44 42 34 30 30 26 25 25 21 16 13 14 16 14 15 22 24 21 19 18 15 13 10 8 8 9 11 13 14 16 18 20 21 20 19 19 19 20 20 20 19 19 18 17 17 16 15 14 15 14 13 12 11 11 11 11 10 9 7 7 6
54 54 53 50 48 46 46 45 44 43 41 40 38 37 38 38 39 39 41 43 42 37 36 40 43 45 41 33 29 27 25 25 25 22 18 15 13 13 13 12 17 22 21 19 18 15 13 12 11 10 10 12 14 15 17 19 20 21 21 21 20 20 20 20 19 19 19 19 19 18 17 16 16 16 16 15 14 13 13 12 11 10 9 8 7 6
54 55 51 50 51 48 45 44 42 42 41 39 37 37 38 37 36 36 37 36 35 35 37 41 44 43 39 34 31 29 27 27 26 24 22 19 16 14 14 12 14 20 21 20 18 15 14 14 13 10 10 13 16 16 17 18 19 20 20 21 22 22 22 21 20 20 20 20 20 19 18 18 18 17 17 16 15 14 14 13 12 11 9 9 7 7
53 54 52 50 51 48 44 43 43 43 42 40 40 40 38 36 34 34 34 32 34 37 37 40 43 42 38 36 34 32 31 29 29 27 26 23 19 17 16 13 14 20 23 20 16 14 13 14 13 11 10 14 17 16 16 18 19 20 21 21 22 23 23 23 22 21 22 21 21 20 20 19 19 19 18 18 17 16 16 15 14 12 10 10 10 9
54 55 54 50 49 49 45 42 43 44 43 41 41 39 36 35 34 34 34 33 35 38 36 36 40 41 38 33 31 33 33 31 30 29 28 27 24 21 19 15 16 22 22 18 15 15 16 15 14 14 13 14 17 17 17 18 19 20 21 21 21 22 22 22 21 22 22 22 21 21 21 20 21 20 20 19 18 17 17 16 15 14 13 12 12 11
57 59 57 53 51 48 45 43 44 45 43 41 39 38 37 36 36 37 37 37 36 36 34 32 35 38 36 29 27 31 34 31 31 32 32 31 30 27 23 19 17 22 23 21 20 19 17 15 16 17 16 16 18 17 16 17 19 20 20 20 20 21 22 22 22 22 22 22 22 22 22 22 22 21 20 19 18 17 17 17 16 15 14 13 13 12
57 60 58 56 53 48 46 47 48 47 45 43 43 41 38 37 37 37 37 36 35 34 31 28 30 34 31 23 22 28 32 31 33 35 34 34 35 31 26 22 17 21 25 24 21 17 15 15 17 19 18 18 18 16 14 15 17 18 19 20 20 20 21 21 21 21 21 22 22 22 23 23 22 21 20 19 19 19 19 18 17 15 14 13 12 12
57 61 58 56 54 49 47 50 52 48 46 48 49 47 44 42 39 37 37 36 34 34 31 28 29 29 24 20 20 24 27 28 32 37 37 37 38 35 28 24 18 20 24 23 19 16 15 16 19 21 21 20 18 17 15 14 15 16 18 19 21 20 20 19 19 19 19 20 22 23 23 23 22 21 21 20 20 20 19 18 16 15 14 13 12 11
59 62 59 57 57 53 48 48 48 46 46 48 49 47 46 44 41 40 40 38 36 35 31 28 28 25 20 19 20 22 24 24 24 27 32 37 40 38 30 23 17 19 24 23 19 16 16 18 21 24 23 22 20 17 15 14 14 14 16 18 21 21 20 20 19 19 19 20 21 23 24 24 24 23 22 21 20 19 18 17 16 14 13 12 11 11
61 62 59 55 56 56 52 48 45 43 43 44 45 45 44 44 43 42 40 36 34 33 28 26 26 23 21 22 22 22 25 24 22 22 26 32 36 34 28 21 17 19 22 22 20 17 16 18 23 25 24 22 18 16 16 16 15 14 15 18 20 21 21 21 20 21 21 21 21 23 24 25 25 24 22 21 20 18 17 16 15 13 12 12 11 11
60 60 58 53 52 54 55 51 45 42 41 42 44 45 44 44 42 40 37 32 30 29 26 27 26 21 21 23 21 22 25 24 22 24 27 30 30 27 24 21 20 20 21 21 20 17 15 18 23 25 23 21 18 16 18 18 17 16 16 17 19 21 22 22 21 22 23 24 23 24 24 24 23 22 21 20 19 18 17 15 13 12 11 11 11 11
60 59 59 53 48 50 52 50 45 42 42 42 43 43 43 42 40 40 37 33 32 29 27 29 27 21 19 20 20 21 23 23 23 24 27 27 25 22 21 21 21 21 22 23 21 19 18 20 23 22 21 20 18 18 19 19 19 19 17 16 18 21 22 22 22 22 23 24 24 23 23 22 22 21 20 19 18 17 16 14 13 12 11 11 11 12
61 61 61 54 49 50 52 50 46 44 42 40 41 42 42 42 42 42 39 38 37 32 30 32 27 21 20 18 15 18 21 23 23 22 22 22 19 17 18 19 20 20 24 26 24 22 22 22 22 20 18 19 20 20 21 20 20 20 18 17 18 19 21 21 22 22 23 23 22 22 22 21 21 21 20 19 19 17 16 14 13 12 12 12 12 12
63 64 63 58 54 53 53 51 48 46 44 40 40 42 43 42 42 41 39 39 38 33 33 33 25 21 21 16 13 18 21 22 22 20 17 16 14 15 16 18 19 20 24 28 27 25 24 23 22 21 18 18 20 22 22 22 21 20 18 17 19 20 20 20 21 21 22 22 21 21 20 20 21 21 20 20 19 18 16 15 14 13 13 13 12 11
64 66 66 63 59 55 53 52 50 48 47 43 39 39 41 43 42 41 40 38 36 33 32 31 27 23 20 15 13 18 21 21 20 17 15 14 11 12 15 17 19 21 23 27 27 24 22 23 25 24 21 20 21 23 24 24 22 20 18 18 19 21 21 21 21 21 21 21 21 20 20 21 21 21 20 20 19 17 16 15 14 14 13 13 12 11
65 68 68 64 60 55 52 51 51 50 50 47 40 36 38 43 43 42 40 36 34 33 30 29 30 27 21 18 17 18 20 20 20 19 18 16 12 11 14 16 19 22 23 24 23 21 22 24 27 27 25 22 22 23 25 24 22 20 19 18 20 21 22 22 22 21 20 20 20 20 21 21 21 20 19 18 18 17 16 15 15 14 14 13 12 11
66 68 69 65 60 56 52 51 51 50 50 48 42 34 34 41 45 42 38 34 33 31 27 27 31 32 27 25 24 23 23 23 23 23 24 21 16 13 15 17 18 21 23 22 19 19 22 26 27 27 26 24 22 23 25 23 20 18 17 17 19 21 22 23 22 22 21 20 20 21 21 21 20 19 18 18 18 18 16 15 15 15 14 13 13 11
66 68 70 66 61 57 54 50 47 46 47 46 42 36 32 36 45 44 38 34 31 27 24 25 29 34 35 32 30 30 29 28 27 27 27 24 18 15 16 20 20 21 23 22 20 22 25 26 27 27 27 25 22 23 23 21 19 18 16 17 18 18 19 19 20 20 20 20 21 21 21 21 20 18 18 17 17 17 16 16 15 15 14 14 13 12
66 68 70 67 63 59 54 50 45 43 46 47 44 41 36 35 43 47 40 35 31 24 23 25 26 28 35 39 38 36 34 33 31 29 28 26 20 16 19 22 21 21 22 23 23 24 26 26 25 26 26 24 23 23 22 22 21 19 18 17 17 17 17 16 16 17 18 18 19 19 18 19 19 19 19 18 18 17 17 17 16 15 15 15 14 14
66 68 70 70 65 58 52 50 46 42 46 48 47 48 44 38 43 50 46 39 33 26 23 26 26 24 30 38 42 42 39 37 35 33 32 29 23 19 20 23 23 23 23 23 23 24 25 24 23 24 24 24 23 24 24 24 23 21 20 19 18 17 16 15 15 15 15 15 14 14 14 15 15 17 18 18 18 19 19 19 18 17 17 17 17 17
66 68 71 72 67 58 52 51 48 45 49 52 51 52 49 41 42 51 50 42 36 32 27 28 29 28 30 33 38 42 43 41 39 38 35 30 25 22 21 21 23 25 26 26 25 24 25 25 25 26 27 27 26 26 28 28 26 25 24 22 20 18 17 16 16 15 14 13 12 12 12 11 12 13 14 16 18 19 19 18 18 18 19 20 20 19
67 68 72 74 71 61 53 53 52 50 53 55 54 53 50 43 43 49 50 44 37 35 34 33 34 35 34 33 34 38 41 39 37 36 32 28 26 24 23 21 22 24 26 27 28 28 29 30 30 31 31 30 29 29 31 31 29 28 27 25 22 20 19 18 17 16 15 14 13 13 12 11 11 12 13 15 17 17 17 17 18 19 20 21 21 20
68 69 73 76 73 64 56 54 54 54 55 56 55 53 49 45 46 48 49 46 41 39 39 38 38 38 37 35 34 36 38 37 34 32 29 27 28 28 27 24 22 22 24 25 26 27 28 31 33 33 31 29 27 28 30 32 31 29 27 26 24 22 21 20 19 17 17 15 14 14 12 11 11 11 12 13 15 16 17 17 17 18 20 22 22 20
70 70 73 75 73 67 60 54 51 53 56 56 55 55 52 49 49 50 50 50 47 46 46 41 40 41 38 34 34 36 38 35 31 30 29 28 29 28 27 26 23 20 20 21 21 21 22 25 28 28 27 25 24 25 27 30 30 29 28 27 26 25 23 22 20 18 17 17 16 15 14 13 13 12 12 12 14 16 17 17 18 19 21 21 21 20
71 71 73 74 72 69 65 56 49 52 56 56 55 56 56 53 52 52 53 54 52 52 51 45 42 41 39 37 37 38 38 35 31 30 31 31 30 28 27 27 24 21 20 19 19 19 19 20 21 21 21 22 23 24 26 28 29 29 27 26 26 25 24 23 21 19 18 18 18 18 17 15 14 14 13 12 13 15 18 19 19 20 21 21 20 20
70 73 74 74 72 70 69 61 51 52 58 58 55 56 57 57 55 54 55 56 56 56 53 48 45 43 41 41 41 41 39 36 34 34 34 33 32 30 29 27 24 22 20 19 19 19 19 19 20 20 19 20 21 23 24 26 27 27 26 25 23 23 22 21 20 19 19 19 20 20 20 18 16 15 15 14 14 14 17 19 20 20 21 21 21 21
67 73 73 74 72 70 72 67 54 51 58 59 55 56 59 59 56 55 55 56 58 58 54 51 49 48 47 45 43 41 40 38 37 37 37 36 35 33 31 28 25 23 21 20 20 19 19 20 21 22 22 21 22 22 23 24 25 25 25 25 24 23 22 21 21 21 20 21 21 22 22 21 19 18 17 17 16 15 15 18 20 20 21 21 21 21
62 71 71 74 75 71 72 72 60 51 56 58 53 56 62 61 57 57 58 57 59 60 57 54 52 51 52 52 47 43 42 40 39 39 38 37 37 36 33 30 28 27 24 22 21 21 21 22 22 23 24 24 23 23 23 23 24 25 25 25 24 24 24 24 24 24 24 24 24 24 24 23 22 21 20 19 18 17 15 15 17 18 19 20 20 20
55 66 67 72 76 73 73 75 67 56 54 54 51 55 64 64 60 61 61 57 58 63 62 58 56 54 55 56 54 50 47 44 43 42 41 40 39 38 36 33 32 31 29 26 24 23 23 23 24 25 25 25 25 24 24 25 26 27 28 28 27 27 26 26 26 26 26 27 26 26 26 26 25 24 23 22 21 19 17 16 16 16 16 17 18 18
46 57 62 69 76 75 73 76 73 63 53 49 49 56 65 64 60 64 66 60 58 65 66 62 59 58 57 56 55 53 51 48 47 47 46 45 44 43 40 37 36 34 33 30 28 27 26 25 25 25 26 27 27 27 27 28 28 29 29 29 28 28 28 28 28 28 29 29 29 29 29 29 29 28 27 26 24 23 21 20 19 19 18 19 19 19
39 49 55 64 73 74 73 75 77 71 57 49 49 56 65 65 61 65 71 65 61 67 71 65 61 60 59 56 54 54 53 51 50 50 49 49 49 48 45 41 39 37 35 33 31 29 28 27 26 25 26 27 28 29 29 29 28 28 29 29 28 28 28 29 29 30 30 31 32 33 33 33 32 31 30 29 28 27 25 23 23 22 22 22 22 22
34 43 49 56 67 72 71 73 77 77 66 53 50 54 63 68 64 66 73 68 61 67 74 70 64 63 62 59 56 54 54 53 52 51 51 50 50 50 48 45 42 40 36 34 33 31 30 29 27 26 26 26 27 28 28 28 28 28 28 28 28 28 29 29 29 30 30 31 31 32 33 34 34 33 33 32 31 30 28 27 26 25 25 24 24 24
29 38 45 51 59 66 69 71 75 79 75 64 51 48 57 67 66 67 74 72 61 62 70 73 69 67 66 63 60 56 54 55 55 54 52 52 51 50 50 48 45 42 39 36 34 34 33 31 29 28 27 27 27 27 27 27 27 27 27 27 28 28 28 28 28 28 28 28 28 29 31 33 34 34 35 35 34 33 32 31 29 29 28 28 27 26
28 33 39 46 52 59 66 71 72 76 80 75 60 47 50 62 66 66 72 76 68 61 62 67 70 70 69 67 64 61 57 56 57 57 55 55 54 53 52 51 48 45 42 39 37 37 36 35 33 31 30 29 28 27 26 26 25 25 25 26 26 26 26 26 26 26 25 25 25 26 27 29 31 33 34 35 35 35 34 34 33 32 32 31 31 30
29 30 33 40 47 54 62 69 70 71 78 80 70 56 50 56 63 66 68 72 72 67 63 64 66 69 72 71 68 64 60 58 57 57 57 57 56 55 54 53 51 48 45 42 40 40 39 38 36 34 33 32 30 28 27 26 25 25 24 24 24 25 25 25 25 25 24 24 24 24 25 26 27 29 31 33 33 33 32 33 33 33 33 33 33 33
29 31 32 36 41 48 57 65 68 68 73 78 76 68 58 53 55 61 66 69 70 67 65 65 63 63 67 71 70 66 63 60 59 58 58 57 57 56 55 53 51 48 45 43 42 42 42 41 39 37 35 34 33 31 29 27 26 25 24 24 25 25 26 26 25 25 25 25 24 24 24 25 26 27 29 30 29 29 30 31 31 31 32 33 33 33
28 31 33 35 38 42 51 61 67 67 70 74 74 72 67 59 53 53 59 67 72 70 66 64 62 59 60 64 66 65 63 61 60 59 59 58 57 56 55 52 49 47 44 43 43 44 44 44 43 41 39 38 36 34 32 30 28 27 26 27 27 27 27 27 27 27 26 26 26 26 25 25 26 27 28 28 28 28 29 30 30 31 31 32 32 33
30 31 33 35 37 39 44 54 64 68 71 73 73 70 67 66 63 56 52 58 68 74 73 69 63 59 58 58 59 61 62 61 61 61 61 60 59 57 54 51 48 46 43 41 42 43 45 45 45 44 42 41 39 37 35 33 32 30 29 30 30 30 30 30 29 29 28 28 28 28 28 28 28 28 28 28 29 30 31 31 31 31 32 32 33 33
Wind_Direction
237 235 232 231 232 236 238 238 236 233 231 230 229 226 222 218 209 199 202 208 210 213 216 210 203 211 231 243 238 226 218 215 208 205 201 193 213 239 241 242 246 241 238 299 314 334 348 327 288 222 198 199 203 202 200 201 198 189 183 181 180 175 170 170 173 172 170 168 164 160 160 160 156 153 153 154 153 153 153 151 148 146 142 133 117 104
234 234 231 230 230 231 231 230 227 225 227 227 225 223 218 213 204 195 196 207 214 211 207 199 184 190 230 253 247 231 216 211 208 205 202 195 210 237 247 244 242 246 237 249 290 322 348 336 305 250 206 196 197 197 196 200 200 194 187 183 180 176 173 174 176 176 173 171 168 164 163 163 160 158 160 161 161 159 158 157 153 148 142 131 117 105
234 231 230 231 229 228 228 228 225 222 223 223 221 219 215 209 202 195 191 197 215 217 209 201 185 182 223 261 260 248 229 220 215 207 204 207 214 227 242 247 246 250 242 243 275 320 345 338 321 269 220 202 197 195 193 194 197 197 193 186 180 178 178 178 179 180 177 174 170 164 162 164 163 162 165 166 165 164 162 161 156 149 144 133 121 111
239 233 230 233 229 227 227 227 227 223 223 221 219 217 213 207 204 203 195 190 204 213 205 200 196 197 220 249 257 255 246 235 225 213 207 210 211 217 232 241 245 250 247 245 257 277 332 338 326 280 228 213 201 194 190 191 193 198 200 191 183 181 182 181 182 182 179 174 170 164 161 163 164 165 169 170 169 168 166 164 160 153 148 140 129 121
238 224 223 230 228 226 226 226 227 226 226 225 222 219 213 206 204 209 201 188 193 203 197 192 212 219 219 237 249 253 251 242 231 222 215 212 206 212 227 237 244 246 242 240 247 258 292 323 318 300 234 218 202 191 187 189 190 197 204 198 188 185 184 183 184 182 177 171 167 162 158 160 165 168 173 174 171 171 170 167 166 161 156 150 142 133
231 219 222 227 225 223 223 223 226 227 228 228 226 224 216 206 201 205 199 187 190 196 192 195 216 223 219 233 245 250 254 248 235 228 224 218 209 214 227 234 241 243 235 232 237 246 264 283 292 282 214 209 204 195 189 188 189 194 203 202 194 189 187 185 183 180 175 171 169 166 164 168 173 174 174 175 173 173 172 171 171 169 167 163 155 143
224 219 223 227 225 223 222 222 223 225 226 226 226 225 218 207 200 200 194 189 191 191 191 201 217 225 224 230 239 246 256 258 246 233 228 223 213 214 221 226 237 241 231 220 222 237 259 278 279 255 210 205 209 205 195 191 191 192 198 204 200 193 190 188 183 180 177 174 175 176 176 179 180 174 171 173 173 174 174 176 179 178 177 172 159 151
219 219 223 226 226 225 224 223 223 226 227 223 220 221 218 209 201 199 197 193 191 187 194 203 211 225 228 231 239 246 255 262 259 244 233 230 220 212 212 217 231 238 228 212 205 214 240 269 274 256 218 209 213 213 204 195 192 191 195 203 204 198 194 190 184 182 180 179 181 183 185 184 180 173 170 173 176 178 180 183 186 185 182 174 163 162
218 221 226 227 227 227 225 223 223 227 227 219 217 219 217 210 200 196 198 195 188 190 197 199 203 220 229 233 239 246 251 255 256 250 240 234 228 218 210 212 224 232 227 213 197 194 209 251 265 254 230 215 213 213 207 198 193 191 193 200 203 200 197 192 188 187 185 184 186 188 188 184 178 174 171 175 182 184 186 189 190 189 184 176 172 176
216 219 224 226 226 226 224 220 219 225 223 215 216 217 213 208 197 192 197 193 189 196 199 195 198 213 227 231 231 237 242 245 247 249 251 245 236 230 221 214 219 225 224 215 197 188 196 227 249 252 240 221 212 212 207 198 193 191 191 197 201 200 199 195 192 191 188 187 189 192 192 185 178 176 175 179 186 188 190 193 193 192 188 182 183 190
215 215 219 221 221 221 220 217 216 221 219 213 215 215 209 206 195 192 197 192 195 203 200 196 199 206 219 227 229 233 237 241 248 253 255 248 238 237 227 212 213 218 218 214 205 197 202 217 237 249 234 216 210 211 208 198 193 192 190 194 200 201 200 198 195 194 191 189 191 194 194 187 180 179 180 183 186 187 187 191 194 192 191 191 195 202
214 213 215 217 217 216 215 214 213 217 216 211 213 212 208 204 196 194 197 196 203 208 202 200 206 210 217 221 225 233 237 242 249 253 252 246 238 237 223 206 209 213 210 209 212 211 211 213 224 232 208 201 202 202 203 197 193 193 191 192 199 202 201 200 199 198 194 191 192 195 195 189 184 182 183 185 185 185 183 183 189 190 192 199 206 209
215 213 213 213 214 214 213 211 210 213 213 211 212 209 206 202 197 197 199 201 209 212 206 208 214 220 228 226 223 229 232 235 243 250 255 254 243 237 226 206 205 208 206 207 215 218 216 213 212 219 203 191 191 194 195 194 192 194 194 194 198 201 202 202 202 201 199 196 193 194 195 191 187 185 185 185 182 180 178 176 181 187 191 198 205 209
217 214 214 212 212 213 213 210 210 211 212 211 211 211 208 205 203 205 205 208 215 216 212 216 221 228 237 238 229 227 225 228 237 243 248 255 246 237 234 214 200 203 205 204 211 215 213 215 217 218 206 189 189 194 194 192 192 193 195 197 199 200 201 200 201 202 200 199 196 194 194 191 189 187 184 183 179 175 174 173 176 182 190 197 199 202
218 215 213 212 212 212 212 211 211 213 214 214 214 218 218 217 218 219 217 218 223 223 216 218 226 234 240 242 237 232 227 226 230 233 233 239 242 233 225 206 191 197 201 198 202 205 205 216 221 216 207 194 191 195 197 196 195 196 197 199 202 202 200 197 198 201 201 199 197 195 194 190 188 188 185 183 178 172 172 174 177 179 187 193 189 188
220 214 211 215 214 212 213 213 210 212 215 215 215 218 221 223 224 222 223 225 227 226 218 218 228 236 240 242 239 235 230 225 224 227 226 225 233 231 216 197 186 194 196 192 194 198 203 215 219 217 211 202 195 194 198 200 201 202 201 202 204 203 200 196 194 197 201 200 197 194 194 191 188 188 186 184 179 173 173 177 181 180 180 186 186 187
219 212 208 215 215 211 213 213 211 212 214 213 214 217 218 221 222 220 222 224 224 225 222 220 227 235 238 239 238 236 233 229 227 231 233 229 233 237 224 205 190 193 193 189 191 204 215 219 219 220 220 211 200 193 196 202 204 205 205 205 206 205 203 201 198 198 200 199 195 194 194 192 189 186 186 185 181 177 176 179 184 184 181 185 193 200
215 210 206 211 213 211 210 211 212 212 212 213 214 217 218 217 218 219 221 220 220 223 223 220 225 233 237 237 236 238 238 236 235 239 242 236 235 239 234 217 191 189 192 190 198 216 225 226 223 220 222 216 204 196 197 200 204 206 206 207 207 206 206 207 207 206 204 199 194 193 194 193 189 187 186 185 181 178 178 181 185 189 191 194 201 209
211 209 204 205 208 209 209 210 211 210 210 213 215 217 217 217 218 218 219 219 220 222 222 219 222 230 235 233 231 236 240 240 239 242 244 240 239 243 239 225 197 187 196 202 207 215 221 226 226 219 218 219 211 202 198 199 201 203 205 207 208 206 205 208 212 213 209 202 196 193 194 193 189 187 185 183 180 177 177 182 185 190 196 200 205 211
209 209 205 201 202 205 208 209 210 210 208 209 213 214 214 218 222 223 223 222 222 224 223 219 220 226 231 230 228 234 238 238 236 239 245 244 245 247 241 231 210 191 197 204 205 212 221 228 229 222 217 221 217 206 199 200 200 201 203 205 206 206 207 209 213 215 213 206 198 194 194 192 189 188 185 181 179 178 179 181 185 190 196 200 206 212
207 209 205 200 199 200 205 208 207 209 209 208 211 211 209 212 215 220 225 225 225 227 224 218 218 220 224 227 229 230 230 228 227 234 243 246 245 246 241 233 218 194 192 197 199 213 228 232 229 222 216 219 216 202 195 198 198 201 204 205 206 206 206 208 211 214 214 209 202 195 192 189 186 186 185 183 181 181 181 181 185 191 195 200 206 213
204 208 204 201 201 198 199 205 206 209 213 214 214 213 211 211 212 214 218 220 223 227 226 222 222 219 217 217 215 213 213 210 209 220 235 239 239 240 238 232 217 193 191 197 202 215 232 232 224 218 215 217 212 198 193 195 193 196 203 207 209 207 204 204 205 207 208 206 201 193 188 186 186 187 187 186 185 184 183 185 189 193 195 200 205 212
202 206 203 202 204 200 196 199 204 211 217 218 218 217 216 215 215 217 219 220 221 224 226 227 227 222 217 213 203 198 203 201 195 203 220 228 230 232 230 224 211 197 195 200 204 211 227 227 217 214 214 214 209 198 195 195 189 190 199 206 208 206 203 200 201 201 198 193 192 188 186 186 187 188 189 188 187 187 188 191 193 193 196 201 206 211
200 203 203 202 204 203 198 196 200 208 215 218 218 217 218 218 219 222 224 225 225 224 221 224 225 219 218 218 205 193 195 196 198 205 214 221 223 220 216 211 205 199 197 196 195 203 216 212 207 210 210 208 205 199 198 195 189 188 194 202 205 204 201 197 197 199 194 187 186 185 185 187 188 190 191 190 189 190 193 194 192 193 199 202 205 210
199 199 200 198 197 198 196 192 195 202 208 216 218 217 218 219 220 223 222 222 224 221 216 221 221 212 215 221 212 200 195 194 200 207 214 221 219 212 208 206 202 198 193 188 187 200 209 203 200 204 205 203 202 201 199 195 189 186 187 197 203 203 200 196 193 195 194 191 189 186 185 187 188 189 190 190 191 193 194 192 190 192 198 200 204 210
197 197 197 191 187 190 191 189 192 197 201 209 215 216 218 218 219 220 219 219 220 215 212 217 214 204 212 217 208 206 204 202 205 207 213 219 218 213 209 205 203 199 190 185 188 199 204 200 196 197 198 200 199 200 199 192 184 182 184 192 199 200 199 196 192 192 195 195 193 190 189 188 188 188 188 187 189 190 189 189 190 192 194 197 203 209
194 196 195 188 185 188 189 189 191 194 196 200 205 210 215 218 219 219 218 219 219 214 213 213 202 197 210 202 182 197 207 210 209 205 209 216 216 214 210 204 205 200 189 185 188 194 198 202 203 197 196 202 201 198 195 187 180 178 181 188 194 197 197 195 192 191 193 196 197 196 194 191 189 188 187 186 185 185 186 188 190 192 194 199 204 209
193 194 192 187 186 187 187 189 193 195 195 196 198 203 210 214 217 218 217 217 218 216 214 208 194 190 194 179 174 198 208 215 218 212 214 219 219 219 212 203 201 198 191 188 190 195 200 207 211 205 199 204 205 196 189 183 180 179 182 187 191 194 194 193 194 193 193 196 199 200 196 192 192 191 189 188 185 184 186 188 190 193 196 201 205 211
192 193 191 186 185 184 183 188 195 198 198 196 194 198 204 208 213 217 217 216 216 216 213 205 194 187 178 170 182 201 206 212 217 217 220 220 219 223 215 203 199 195 191 189 192 200 205 207 210 207 203 205 205 197 188 183 183 185 187 189 190 191 191 192 193 193 194 196 199 200 198 195 194 194 192 189 186 186 189 189 193 196 199 203 207 214
192 192 189 184 181 180 180 186 194 200 202 200 196 196 198 202 208 215 216 214 215 215 212 204 196 192 185 181 187 197 204 209 212 216 222 222 221 223 213 205 200 190 183 182 186 192 195 197 199 200 201 203 202 199 193 187 188 191 192 193 192 190 191 191 191 190 190 191 194 199 200 199 197 196 194 192 190 192 193 194 198 202 203 207 211 216
193 191 187 181 177 176 179 184 190 197 201 200 198 200 202 202 204 209 213 213 211 210 208 203 200 199 197 194 196 200 206 213 217 221 226 226 224 223 211 202 196 183 176 178 180 182 186 188 188 191 196 198 197 200 199 192 191 193 193 192 190 189 191 190 187 185 183 184 191 197 199 199 199 198 198 200 201 201 201 203 205 207 210 213 214 217
194 191 185 179 175 175 179 184 185 191 197 196 195 199 206 207 202 201 203 205 202 198 198 199 200 204 205 203 204 207 208 212 217 221 229 231 229 224 211 198 186 177 176 180 181 182 186 188 189 193 196 195 194 199 200 196 192 191 190 190 189 189 190 187 182 178 177 181 187 191 195 197 200 203 205 208 211 212 212 214 215 215 217 218 218 219
195 191 184 178 175 175 180 185 184 187 193 193 192 196 203 207 201 196 194 196 193 188 192 198 200 208 213 209 209 212 212 212 214 219 228 235 235 227 211 195 183 177 180 185 186 185 185 185 189 193 194 195 197 197 198 197 192 187 187 190 192 192 190 185 181 178 178 182 182 180 185 193 198 204 210 213 216 217 219 221 224 224 222 220 219 220
195 191 184 180 178 176 181 186 183 184 189 190 191 196 198 200 199 195 192 191 187 183 190 201 204 210 217 214 212 214 216 216 217 221 226 230 229 225 216 201 189 184 184 187 191 192 190 189 190 189 189 194 197 195 195 195 191 187 188 189 192 193 189 184 182 179 177 181 183 183 187 193 198 205 211 216 220 221 221 224 227 228 224 222 222 222
195 192 186 183 182 179 181 185 182 181 186 187 190 194 194 194 195 193 190 187 182 184 194 204 206 209 214 215 214 216 218 217 218 221 222 221 217 217 217 210 199 192 189 189 191 194 193 191 192 191 190 192 194 194 194 193 190 189 189 188 189 191 188 184 184 184 184 187 192 198 202 205 209 213 217 221 224 225 224 225 228 229 227 223 222 221
194 192 188 188 187 182 180 182 179 179 182 183 186 191 193 192 191 189 187 184 182 190 201 205 205 207 212 214 215 218 220 219 219 220 220 216 212 210 211 210 205 200 196 193 191 192 190 191 194 196 195 194 194 194 194 195 194 193 190 187 187 189 189 187 186 189 194 198 202 209 215 219 223 227 228 228 226 225 225 226 227 227 225 222 219 220
194 193 191 193 193 186 181 179 176 176 179 178 180 188 191 191 189 187 186 184 186 197 205 204 204 207 210 211 213 219 222 219 218 220 220 216 212 208 208 209 208 205 202 201 199 195 192 192 195 197 198 198 198 197 195 196 198 197 194 190 189 190 192 191 189 192 198 204 210 217 223 230 235 239 241 240 234 226 221 222 224 223 220 218 218 220
192 194 193 196 198 190 182 180 178 176 175 173 177 185 188 188 188 186 185 185 190 200 205 204 203 204 204 204 207 216 222 220 216 218 220 218 214 211 210 210 209 207 207 207 208 206 204 203 201 199 199 199 202 204 201 199 199 199 199 196 192 193 194 193 194 196 200 206 213 220 227 233 241 247 250 251 248 234 222 219 221 221 218 216 216 219
190 194 193 197 200 193 186 185 182 175 172 172 177 183 185 187 187 184 185 189 195 200 203 204 203 199 196 198 203 211 219 219 217 217 218 218 217 215 215 214 210 208 208 209 211 211 211 213 213 211 208 203 202 205 205 204 204 203 203 201 199 198 198 198 200 203 206 210 214 219 225 230 238 248 255 259 261 250 231 221 220 221 219 216 216 219
188 193 194 198 202 197 190 189 185 175 170 172 177 181 183 185 185 185 189 194 197 199 201 202 203 198 194 194 198 207 214 217 218 219 217 216 218 219 219 219 216 214 213 213 213 214 212 213 214 216 215 210 203 201 201 202 204 205 205 205 204 205 206 207 210 213 215 218 219 220 224 228 233 242 251 257 263 263 246 228 221 222 222 221 222 223
186 192 195 198 202 201 195 191 188 179 171 172 178 181 182 184 185 188 194 196 196 197 199 201 203 201 197 195 195 201 208 212 216 220 219 216 218 220 221 223 224 224 224 223 220 218 216 215 215 215 214 210 205 202 201 200 201 203 205 206 208 210 212 212 215 217 217 219 220 221 222 225 229 234 242 248 255 261 256 238 226 223 224 225 226 226
183 191 196 197 200 204 201 194 190 186 176 172 175 179 181 184 185 187 193 197 197 197 198 200 202 203 202 200 198 200 204 208 212 217 219 218 219 221 223 225 227 228 231 230 225 222 219 217 217 215 212 210 208 207 207 206 205 204 205 207 209 211 214 215 217 219 220 219 219 220 221 223 225 228 233 240 246 252 255 248 237 229 225 224 224 224
180 187 195 198 200 204 204 198 195 193 184 173 172 177 181 184 186 185 189 195 198 197 199 200 201 203 206 206 204 202 203 206 209 213 216 218 220 222 225 227 228 230 232 231 227 223 221 219 218 216 213 211 210 209 210 210 209 207 206 207 209 210 212 213 214 216 218 218 217 217 218 220 222 224 227 233 239 244 248 250 247 242 236 230 227 226
180 182 189 196 200 204 206 204 200 197 192 181 174 177 181 183 185 185 188 193 195 194 198 201 201 202 207 209 208 206 205 206 209 213 215 217 219 222 224 226 228 231 232 231 228 226 224 222 221 218 216 213 210 208 210 211 211 209 206 205 207 209 209 211 212 214 215 216 216 216 216 217 219 221 223 227 232 237 242 246 248 247 244 239 235 233
187 181 182 190 196 201 206 207 203 200 200 193 180 178 182 184 185 185 188 192 191 188 194 201 202 201 205 208 210 210 207 206 208 212 215 216 218 220 223 224 226 228 229 229 229 229 227 225 223 222 220 216 211 207 208 210 211 211 208 205 204 205 207 209 211 214 217 219 219 219 218 218 219 220 222 224 227 232 237 241 244 246 247 245 243 241
197 186 181 184 190 196 203 208 206 204 205 202 191 182 183 184 184 185 188 192 190 185 191 199 202 202 204 207 210 212 210 208 208 210 214 216 217 219 222 224 226 227 227 227 228 230 230 227 226 224 222 220 215 211 208 209 211 213 212 208 205 204 205 206 209 213 217 220 222 222 222 222 221 221 221 223 225 228 232 236 239 242 245 247 247 247
207 195 188 184 186 192 199 205 208 208 208 207 201 191 184 183 185 185 188 192 194 191 192 198 201 203 204 206 210 212 211 210 210 210 213 215 217 219 221 223 225 226 226 226 227 229 230 228 227 225 223 220 218 216 213 212 212 214 215 215 214 212 211 210 210 213 217 220 223 225 226 225 225 225 225 225 226 228 231 233 235 238 240 243 245 246
217 207 199 192 190 193 198 203 207 210 211 210 208 202 191 185 185 187 188 191 196 198 198 199 202 204 204 206 209 211 210 210 211 213 215 217 218 220 221 222 224 226 226 226 227 229 230 230 227 225 223 221 219 218 218 216 214 214 217 220 222 222 221 219 217 217 219 221 223 225 228 229 229 229 230 230 231 232 233 235 236 237 239 240 242 244
225 218 213 205 197 195 198 201 207 212 213 213 213 212 206 195 188 188 189 190 192 195 197 199 200 202 203 205 207 209 209 209 211 214 217 219 221 222 222 223 225 226 227 229 230 230 231 231 230 226 223 223 222 220 220 220 220 219 220 222 224 226 227 226 225 224 224 226 227 229 230 232 233 233 234 236 237 238 238 239 240 241 241 242 243 244
231 226 222 216 206 200 198 201 206 212 215 215 216 218 216 210 201 194 192 191 192 193 194 196 197 199 200 202 205 208 209 209 211 215 217 220 222 223 223 225 227 229 231 232 232 231 230 231 232 230 227 225 224 224 223 223 224 226 226 225 225 227 228 229 229 229 230 232 235 237 238 238 239 239 240 242 243 243 244 244 244 245 245 246 246 247
236 234 230 222 213 207 203 203 205 210 214 217 218 219 220 218 215 211 203 196 194 195 197 199 200 200 201 202 204 207 210 211 213 216 219 221 222 222 224 226 227 228 230 230 230 231 231 231 233 234 233 230 228 228 229 229 229 230 231 229 227 227 229 230 231 231 233 235 238 241 243 244 245 245 245 245 245 245 246 247 248 248 249 249 249 249
Height
5837 5836 5838 5844 5848 5849 5850 5852 5854 5855 5856 5857 5859 5861 5864 5866 5869 5871 5873 5875 5875 5875 5877 5880 5882 5882 5881 5880 5881 5885 5888 5890 5893 5895 5895 5896 5897 5897 5897 5898 5899 5899 5900 5900 5900 5901 5901 5901 5902 5903 5904 5905 5907 5909 5911 5913 5915 5916 5917 5918 5919 5920 5922 5924 5925 5927 5928 5930 5932 5933 5934 5936 5937 5938 5939 5940 5942 5943 5944 5945 5946 5946 5947 5947 5947 5947
5830 5831 5839 5845 5845 5845 5847 5848 5849 5851 5852 5853 5856 5858 5861 5863 5866 5869 5871 5872 5873 5874 5875 5877 5879 5881 5881 5879 5878 5881 5885 5888 5892 5894 5894 5894 5896 5897 5897 5897 5898 5898 5899 5899 5900 5900 5900 5901 5901 5902 5903 5904 5906 5907 5909 5912 5914 5915 5916 5917 5918 5920 5921 5923 5924 5926 5927 5929 5931 5932 5934 5935 5937 5938 5939 5940 5942 5943 5944 5945 5946 5946 5947 5947 5947 5947
5825 5832 5841 5842 5841 5842 5843 5844 5845 5847 5848 5850 5852 5854 5857 5861 5864 5865 5866 5868 5871 5872 5873 5874 5876 5878 5880 5879 5876 5878 5882 5886 5889 5891 5892 5893 5895 5896 5896 5896 5896 5897 5898 5898 5899 5899 5899 5900 5901 5901 5902 5903 5904 5906 5907 5909 5912 5914 5916 5917 5918 5920 5921 5922 5924 5926 5927 5929 5931 5932 5934 5935 5936 5937 5939 5940 5942 5943 5944 5945 5946 5946 5947 5947 5947 5947
5825 5835 5839 5836 5836 5838 5839 5841 5842 5843 5844 5846 5848 5850 5854 5859 5861 5862 5863 5865 5867 5871 5873 5872 5874 5876 5879 5878 5875 5876 5880 5883 5886 5888 5889 5891 5893 5895 5895 5894 5895 5896 5896 5897 5898 5898 5898 5899 5900 5901 5901 5902 5904 5905 5906 5908 5911 5913 5915 5916 5918 5919 5920 5922 5923 5925 5927 5929 5931 5933 5934 5935 5936 5937 5939 5940 5942 5943 5944 5945 5946 5946 5947 5947 5948 5948
5825 5833 5832 5829 5832 5834 5835 5836 5837 5839 5841 5844 5846 5848 5853 5857 5860 5862 5862 5862 5863 5866 5869 5871 5871 5872 5875 5875 5873 5875 5878 5881 5883 5885 5887 5889 5892 5893 5893 5893 5894 5895 5896 5897 5897 5897 5897 5898 5899 5900 5901 5902 5903 5904 5905 5907 5909 5912 5914 5916 5917 5918 5919 5921 5923 5925 5928 5930 5932 5933 5934 5935 5936 5937 5938 5940 5942 5943 5944 5945 5946 5947 5947 5948 5948 5948
5822 5827 5825 5824 5826 5828 5830 5832 5834 5837 5839 5841 5844 5847 5852 5855 5858 5859 5859 5858 5859 5861 5864 5867 5867 5867 5871 5872 5871 5872 5875 5877 5880 5882 5884 5887 5890 5891 5891 5892 5893 5894 5895 5896 5896 5897 5897 5897 5898 5899 5900 5901 5903 5904 5905 5906 5908 5910 5913 5915 5916 5918 5919 5920 5922 5925 5927 5930 5932 5933 5934 5935 5935 5936 5938 5940 5942 5943 5944 5945 5946 5947 5947 5948 5948 5949
5817 5820 5818 5818 5821 5824 5826 5828 5831 5834 5836 5839 5843 5847 5849 5851 5854 5855 5854 5854 5855 5858 5862 5863 5863 5865 5868 5869 5869 5870 5872 5874 5877 5879 5882 5885 5887 5888 5889 5890 5890 5892 5893 5894 5895 5896 5896 5897 5897 5898 5899 5901 5902 5903 5904 5905 5907 5909 5912 5914 5916 5918 5919 5921 5923 5925 5927 5929 5931 5932 5933 5934 5935 5937 5938 5940 5941 5943 5944 5945 5946 5947 5947 5948 5949 5949
5812 5814 5812 5814 5817 5820 5822 5826 5830 5831 5834 5839 5842 5843 5844 5847 5851 5852 5851 5850 5853 5857 5858 5858 5861 5863 5864 5865 5867 5868 5869 5871 5873 5876 5879 5882 5884 5886 5887 5888 5889 5890 5892 5893 5894 5895 5895 5896 5896 5897 5898 5900 5901 5902 5904 5905 5907 5909 5911 5913 5915 5918 5919 5921 5923 5924 5926 5928 5930 5932 5933 5935 5936 5937 5938 5940 5941 5942 5944 5945 5946 5947 5948 5949 5949 5950
5809 5809 5809 5812 5814 5816 5820 5825 5829 5829 5831 5837 5839 5839 5841 5844 5848 5850 5848 5849 5852 5853 5851 5852 5857 5860 5860 5863 5866 5866 5866 5868 5870 5873 5877 5879 5882 5883 5885 5886 5887 5888 5890 5891 5892 5893 5895 5895 5896 5896 5897 5898 5899 5901 5903 5904 5906 5908 5910 5912 5915 5917 5919 5921 5923 5924 5926 5928 5930 5932 5933 5935 5937 5938 5939 5939 5940 5942 5943 5944 5946 5947 5948 5949 5949 5950
5802 5804 5805 5807 5809 5813 5819 5823 5824 5824 5828 5834 5834 5835 5838 5840 5844 5847 5846 5847 5849 5847 5846 5848 5851 5855 5857 5860 5862 5861 5862 5864 5868 5872 5875 5877 5878 5880 5883 5885 5886 5886 5887 5889 5890 5891 5893 5894 5895 5896 5897 5898 5899 5900 5901 5902 5904 5906 5908 5911 5914 5917 5919 5921 5922 5924 5925 5927 5929 5931 5933 5935 5937 5938 5938 5939 5940 5942 5943 5944 5946 5947 5948 5949 5949 5950
5794 5797 5797 5799 5804 5810 5815 5817 5819 5821 5825 5829 5829 5830 5833 5835 5839 5842 5843 5845 5844 5839 5842 5846 5847 5851 5854 5856 5857 5857 5859 5864 5868 5871 5873 5874 5876 5877 5880 5883 5883 5884 5885 5886 5888 5889 5891 5892 5894 5895 5896 5897 5898 5899 5900 5901 5903 5905 5908 5910 5913 5915 5918 5920 5922 5923 5924 5926 5928 5930 5932 5935 5936 5937 5938 5939 5940 5941 5943 5944 5945 5946 5947 5948 5949 5950
5784 5787 5789 5794 5800 5804 5808 5811 5814 5816 5819 5822 5823 5826 5828 5830 5833 5836 5837 5839 5835 5833 5841 5845 5846 5846 5847 5850 5854 5856 5860 5864 5867 5868 5869 5871 5873 5875 5878 5881 5881 5882 5882 5884 5885 5887 5889 5891 5893 5894 5895 5896 5896 5897 5899 5901 5903 5905 5907 5909 5911 5914 5917 5919 5921 5922 5924 5925 5927 5929 5931 5934 5936 5937 5938 5938 5939 5941 5942 5943 5944 5946 5947 5947 5948 5949
5775 5781 5785 5790 5794 5798 5801 5804 5807 5809 5812 5815 5817 5819 5821 5824 5826 5827 5830 5830 5827 5832 5841 5845 5844 5842 5841 5846 5852 5855 5859 5861 5863 5866 5867 5868 5870 5872 5876 5878 5879 5880 5880 5881 5883 5885 5887 5889 5891 5893 5894 5895 5895 5896 5898 5900 5902 5904 5906 5908 5910 5913 5916 5918 5920 5922 5923 5924 5926 5928 5930 5933 5935 5936 5937 5938 5939 5940 5941 5942 5943 5945 5946 5946 5947 5948
5771 5777 5779 5784 5789 5792 5795 5798 5800 5802 5805 5809 5811 5814 5816 5818 5820 5821 5824 5826 5826 5833 5842 5843 5842 5838 5838 5845 5850 5852 5856 5858 5860 5863 5864 5866 5867 5869 5873 5875 5877 5878 5878 5879 5881 5883 5885 5887 5890 5891 5892 5893 5894 5895 5897 5899 5901 5903 5905 5907 5909 5912 5914 5917 5919 5921 5922 5923 5925 5927 5929 5931 5933 5935 5936 5937 5938 5939 5940 5942 5943 5944 5944 5946 5947 5947
5764 5768 5774 5780 5783 5785 5788 5792 5797 5801 5803 5807 5811 5814 5815 5817 5819 5821 5824 5825 5827 5834 5840 5841 5837 5834 5836 5843 5848 5852 5854 5855 5858 5860 5861 5863 5865 5867 5869 5872 5874 5876 5876 5877 5879 5881 5883 5886 5888 5889 5891 5892 5893 5895 5896 5898 5900 5902 5904 5906 5908 5910 5913 5915 5917 5919 5921 5922 5924 5926 5928 5930 5931 5933 5934 5935 5937 5938 5939 5941 5942 5943 5944 5945 5946 5947
5753 5761 5772 5776 5777 5781 5785 5790 5795 5798 5801 5805 5809 5810 5812 5815 5818 5821 5823 5825 5829 5833 5835 5836 5832 5831 5836 5841 5846 5850 5851 5853 5856 5857 5858 5860 5862 5865 5867 5869 5872 5873 5874 5875 5877 5879 5882 5884 5886 5888 5890 5891 5892 5894 5896 5897 5899 5901 5903 5904 5906 5909 5911 5913 5915 5918 5919 5921 5923 5924 5926 5928 5930 5931 5933 5934 5936 5937 5938 5939 5941 5942 5943 5944 5945 5946
5743 5753 5764 5767 5770 5778 5783 5787 5790 5792 5796 5801 5804 5805 5809 5814 5816 5819 5821 5825 5827 5828 5829 5831 5830 5830 5834 5838 5842 5846 5848 5850 5853 5853 5855 5857 5859 5862 5865 5867 5870 5871 5872 5874 5876 5878 5880 5883 5885 5886 5888 5889 5891 5892 5894 5896 5898 5900 5902 5903 5905 5907 5909 5912 5914 5916 5918 5919 5921 5923 5925 5926 5928 5930 5931 5933 5934 5936 5937 5938 5940 5941 5942 5944 5945 5945
5739 5746 5754 5759 5766 5773 5779 5783 5785 5788 5793 5796 5799 5803 5808 5811 5813 5816 5818 5820 5821 5821 5823 5827 5828 5829 5831 5835 5839 5842 5844 5847 5849 5850 5852 5854 5856 5859 5862 5865 5868 5870 5871 5873 5875 5877 5879 5881 5883 5884 5886 5888 5889 5890 5892 5895 5897 5899 5901 5903 5904 5906 5909 5911 5913 5915 5917 5918 5920 5922 5923 5925 5927 5928 5930 5931 5933 5934 5936 5937 5939 5940 5941 5943 5944 5945
5734 5739 5747 5754 5761 5769 5775 5777 5779 5783 5788 5793 5797 5801 5804 5806 5808 5810 5811 5813 5815 5817 5820 5824 5826 5827 5828 5832 5837 5839 5840 5844 5846 5846 5847 5849 5852 5856 5860 5863 5866 5868 5870 5871 5873 5875 5877 5879 5881 5883 5884 5886 5887 5888 5891 5893 5895 5897 5899 5902 5904 5906 5908 5910 5912 5914 5916 5918 5919 5921 5922 5924 5925 5927 5928 5930 5931 5933 5935 5936 5938 5939 5940 5941 5942 5943
5726 5731 5740 5749 5757 5763 5766 5768 5771 5777 5783 5788 5791 5794 5798 5802 5804 5806 5808 5810 5813 5814 5818 5822 5823 5823 5826 5830 5834 5836 5837 5841 5843 5843 5843 5845 5849 5852 5857 5860 5863 5866 5868 5869 5871 5873 5875 5877 5879 5881 5883 5885 5886 5887 5890 5892 5894 5896 5898 5900 5902 5904 5906 5908 5910 5913 5915 5917 5918 5919 5921 5923 5924 5926 5927 5929 5930 5931 5933 5935 5936 5938 5939 5940 5941 5942
5722 5725 5734 5744 5749 5752 5755 5760 5766 5774 5778 5780 5781 5785 5791 5794 5799 5803 5805 5807 5810 5812 5815 5818 5819 5821 5826 5830 5831 5833 5834 5837 5839 5841 5841 5843 5846 5849 5853 5857 5861 5864 5866 5867 5870 5872 5874 5875 5877 5879 5881 5883 5884 5886 5888 5890 5892 5894 5896 5898 5901 5903 5905 5907 5909 5911 5914 5916 5917 5918 5920 5921 5923 5925 5926 5927 5928 5930 5931 5933 5935 5937 5938 5939 5940 5941
5715 5718 5729 5738 5739 5742 5749 5759 5768 5774 5775 5776 5778 5782 5787 5790 5794 5797 5799 5802 5806 5808 5812 5815 5817 5821 5825 5827 5828 5829 5831 5833 5837 5839 5839 5840 5843 5847 5850 5854 5858 5861 5864 5866 5868 5870 5872 5873 5875 5877 5879 5881 5883 5884 5886 5888 5890 5892 5894 5897 5899 5901 5903 5905 5907 5909 5912 5914 5916 5917 5918 5920 5921 5923 5924 5926 5927 5929 5930 5932 5934 5935 5937 5938 5939 5940
5708 5715 5725 5732 5735 5740 5748 5757 5766 5771 5774 5776 5778 5781 5785 5788 5791 5793 5796 5801 5804 5807 5811 5814 5815 5819 5822 5823 5825 5827 5829 5831 5834 5836 5837 5837 5840 5844 5848 5852 5856 5859 5861 5863 5865 5868 5870 5871 5873 5875 5877 5879 5882 5883 5885 5887 5889 5891 5893 5895 5897 5900 5901 5903 5905 5907 5910 5912 5914 5916 5917 5918 5920 5922 5923 5925 5926 5928 5929 5931 5932 5934 5935 5936 5937 5938
5706 5715 5723 5729 5735 5742 5747 5751 5756 5764 5770 5772 5773 5777 5781 5785 5790 5793 5797 5801 5804 5806 5809 5810 5812 5816 5819 5820 5823 5825 5827 5828 5830 5832 5833 5835 5838 5842 5846 5849 5852 5855 5858 5860 5863 5866 5868 5869 5871 5873 5876 5878 5880 5881 5883 5885 5887 5889 5891 5894 5896 5898 5899 5901 5903 5906 5908 5910 5912 5914 5916 5918 5919 5921 5922 5924 5925 5927 5928 5929 5931 5932 5933 5935 5936 5937
5701 5708 5716 5725 5732 5738 5743 5745 5748 5754 5762 5765 5769 5774 5778 5782 5788 5791 5794 5798 5800 5803 5806 5807 5809 5814 5816 5817 5821 5823 5824 5825 5827 5829 5831 5832 5836 5840 5843 5846 5849 5852 5855 5857 5860 5863 5865 5867 5869 5872 5875 5877 5878 5879 5881 5884 5886 5888 5890 5892 5894 5896 5898 5900 5901 5904 5907 5909 5911 5913 5915 5916 5918 5920 5921 5923 5924 5925 5927 5928 5929 5931 5932 5933 5934 5935
5693 5701 5709 5718 5725 5731 5736 5740 5744 5749 5754 5760 5766 5770 5774 5778 5781 5785 5789 5792 5794 5799 5802 5803 5807 5812 5814 5815 5818 5821 5822 5824 5825 5827 5828 5831 5834 5838 5841 5843 5846 5850 5852 5855 5858 5861 5863 5866 5868 5871 5873 5875 5876 5878 5880 5882 5884 5886 5888 5890 5893 5895 5897 5899 5900 5902 5905 5908 5910 5912 5913 5915 5917 5919 5920 5921 5922 5924 5925 5926 5928 5929 5930 5931 5932 5933
5688 5697 5705 5712 5718 5724 5731 5736 5741 5744 5748 5754 5760 5764 5769 5773 5777 5782 5785 5787 5791 5796 5799 5801 5807 5811 5811 5813 5817 5819 5820 5822 5824 5825 5826 5829 5832 5836 5839 5841 5844 5847 5850 5853 5856 5859 5861 5864 5867 5869 5872 5873 5875 5877 5879 5881 5883 5885 5887 5889 5891 5893 5896 5898 5900 5902 5904 5906 5908 5910 5912 5914 5916 5917 5918 5919 5921 5922 5923 5924 5926 5927 5928 5929 5931 5932
5684 5691 5697 5704 5711 5719 5728 5733 5737 5739 5743 5747 5754 5760 5765 5770 5774 5778 5781 5785 5790 5794 5796 5801 5806 5808 5808 5811 5815 5818 5819 5820 5822 5823 5825 5828 5831 5834 5837 5839 5842 5845 5848 5851 5854 5856 5859 5862 5864 5867 5869 5871 5873 5875 5877 5879 5881 5883 5885 5887 5889 5892 5894 5896 5899 5901 5903 5905 5907 5909 5911 5912 5914 5915 5917 5918 5919 5920 5921 5922 5924 5925 5926 5927 5929 5930
5680 5684 5692 5701 5710 5718 5725 5730 5734 5737 5740 5743 5749 5757 5762 5767 5771 5774 5779 5784 5788 5791 5796 5800 5804 5806 5807 5809 5813 5816 5817 5818 5820 5822 5825 5827 5830 5832 5835 5838 5840 5843 5846 5849 5852 5855 5857 5860 5862 5865 5867 5869 5871 5874 5875 5877 5879 5881 5883 5886 5888 5890 5892 5895 5897 5899 5901 5903 5905 5907 5909 5911 5912 5914 5916 5917 5918 5918 5919 5920 5921 5923 5924 5925 5927 5928
5676 5681 5690 5700 5709 5716 5722 5726 5730 5734 5738 5742 5748 5755 5761 5765 5769 5773 5778 5783 5786 5789 5795 5799 5802 5805 5806 5807 5809 5812 5814 5816 5818 5820 5823 5826 5829 5831 5833 5836 5839 5841 5844 5847 5850 5853 5856 5858 5860 5863 5866 5868 5870 5872 5874 5875 5877 5880 5882 5884 5887 5889 5891 5893 5895 5897 5899 5901 5903 5905 5907 5909 5911 5913 5914 5915 5916 5916 5917 5918 5919 5920 5922 5923 5924 5926
5673 5680 5689 5699 5707 5713 5717 5721 5726 5730 5735 5741 5748 5755 5760 5764 5768 5773 5777 5781 5785 5788 5792 5795 5798 5801 5802 5804 5805 5808 5811 5813 5815 5818 5821 5824 5827 5830 5831 5834 5837 5840 5842 5845 5849 5852 5854 5857 5859 5861 5863 5866 5868 5870 5872 5874 5876 5878 5881 5883 5885 5887 5890 5892 5894 5895 5897 5899 5901 5903 5905 5908 5910 5911 5913 5914 5914 5915 5915 5916 5917 5918 5919 5921 5922 5923
5672 5679 5688 5697 5703 5707 5712 5718 5723 5728 5733 5739 5746 5751 5756 5760 5765 5770 5774 5777 5781 5785 5789 5792 5795 5797 5799 5800 5801 5803 5807 5810 5813 5816 5818 5821 5825 5828 5830 5832 5836 5838 5841 5844 5847 5850 5853 5855 5857 5859 5862 5864 5866 5868 5871 5873 5875 5877 5880 5882 5884 5886 5888 5890 5892 5894 5896 5898 5899 5902 5904 5906 5907 5909 5910 5911 5912 5913 5913 5914 5915 5916 5917 5919 5920 5921
5671 5678 5687 5694 5699 5705 5711 5715 5720 5726 5731 5736 5741 5744 5748 5754 5759 5763 5767 5771 5777 5782 5787 5790 5793 5794 5795 5796 5797 5800 5804 5808 5812 5814 5815 5819 5822 5825 5827 5830 5833 5836 5839 5843 5846 5848 5851 5854 5856 5858 5860 5862 5865 5867 5869 5871 5874 5876 5879 5881 5883 5885 5887 5889 5891 5893 5895 5896 5898 5900 5902 5903 5905 5906 5907 5908 5909 5910 5911 5912 5913 5914 5915 5916 5917 5918
5670 5677 5684 5690 5695 5702 5707 5711 5717 5722 5725 5729 5733 5736 5741 5748 5753 5758 5763 5769 5774 5779 5784 5787 5789 5790 5791 5792 5795 5798 5801 5805 5809 5811 5813 5817 5820 5823 5825 5827 5830 5834 5837 5840 5843 5845 5848 5851 5853 5855 5857 5859 5862 5864 5867 5869 5872 5875 5877 5879 5881 5883 5885 5887 5889 5891 5893 5895 5897 5899 5900 5901 5902 5903 5904 5905 5906 5907 5908 5909 5910 5911 5912 5913 5914 5915
5668 5675 5681 5685 5691 5698 5704 5708 5711 5714 5717 5721 5726 5732 5738 5744 5749 5755 5763 5768 5772 5776 5779 5780 5782 5785 5787 5790 5792 5794 5798 5802 5806 5808 5812 5815 5817 5820 5823 5825 5828 5832 5834 5837 5839 5842 5844 5847 5849 5851 5853 5856 5858 5861 5864 5867 5870 5872 5874 5877 5879 5882 5884 5886 5888 5890 5892 5894 5896 5897 5898 5899 5900 5901 5902 5902 5903 5904 5906 5907 5908 5908 5910 5911 5912 5913
5665 5672 5677 5681 5687 5694 5699 5702 5705 5707 5712 5718 5723 5730 5736 5741 5746 5752 5760 5766 5770 5772 5773 5774 5776 5780 5783 5786 5789 5792 5794 5799 5804 5807 5810 5812 5815 5817 5820 5823 5826 5829 5832 5834 5836 5839 5842 5844 5846 5849 5851 5854 5857 5859 5862 5865 5867 5870 5872 5875 5878 5880 5883 5885 5887 5889 5890 5892 5894 5895 5896 5897 5898 5898 5899 5900 5901 5902 5903 5904 5905 5906 5907 5908 5909 5911
5660 5667 5672 5676 5682 5688 5694 5699 5702 5705 5709 5713 5718 5725 5731 5737 5743 5750 5755 5761 5764 5766 5767 5769 5773 5777 5778 5781 5787 5789 5790 5797 5803 5806 5808 5810 5812 5815 5818 5821 5824 5826 5829 5831 5834 5837 5839 5842 5845 5847 5849 5852 5855 5858 5861 5864 5866 5868 5871 5873 5875 5878 5881 5883 5885 5887 5888 5890 5892 5893 5894 5894 5895 5896 5897 5897 5898 5899 5900 5901 5902 5903 5904 5905 5907 5908
5656 5663 5668 5672 5677 5683 5690 5695 5698 5701 5704 5708 5713 5719 5726 5733 5740 5745 5750 5755 5758 5759 5763 5767 5771 5775 5776 5779 5783 5785 5788 5795 5800 5803 5804 5807 5810 5813 5815 5818 5821 5824 5826 5828 5831 5834 5836 5839 5842 5844 5847 5850 5853 5855 5858 5861 5864 5866 5869 5871 5873 5875 5878 5880 5882 5884 5886 5888 5889 5891 5892 5892 5893 5893 5894 5895 5896 5897 5898 5899 5899 5900 5901 5903 5904 5906
5651 5658 5664 5669 5674 5680 5685 5689 5693 5696 5699 5704 5710 5716 5723 5730 5736 5742 5746 5750 5752 5755 5760 5765 5769 5773 5775 5777 5781 5783 5786 5791 5796 5798 5800 5803 5806 5809 5812 5815 5818 5821 5823 5826 5828 5831 5834 5836 5838 5841 5844 5847 5850 5853 5855 5857 5860 5863 5866 5868 5870 5873 5875 5877 5879 5881 5883 5885 5887 5888 5889 5890 5891 5892 5892 5893 5894 5894 5895 5896 5897 5898 5899 5900 5902 5903
5647 5655 5661 5665 5669 5676 5680 5684 5690 5695 5696 5701 5707 5713 5719 5726 5734 5739 5742 5743 5747 5752 5757 5762 5766 5770 5772 5775 5778 5781 5784 5787 5791 5794 5797 5800 5802 5806 5809 5813 5816 5818 5821 5824 5826 5829 5831 5834 5836 5839 5841 5844 5847 5849 5852 5854 5857 5859 5862 5864 5867 5869 5872 5874 5876 5878 5880 5882 5884 5886 5887 5888 5889 5890 5891 5891 5891 5892 5892 5893 5894 5896 5897 5898 5899 5900
5644 5652 5657 5660 5664 5670 5675 5680 5688 5693 5695 5699 5704 5708 5713 5721 5729 5734 5736 5738 5742 5748 5753 5758 5762 5767 5769 5771 5775 5778 5781 5784 5787 5790 5794 5797 5800 5803 5807 5811 5814 5817 5819 5822 5825 5827 5829 5832 5834 5836 5838 5841 5843 5846 5849 5851 5853 5856 5858 5860 5863 5865 5868 5870 5872 5874 5876 5878 5880 5882 5884 5886 5887 5888 5889 5889 5890 5890 5890 5891 5892 5893 5894 5895 5896 5898
5641 5647 5653 5658 5663 5667 5671 5677 5683 5689 5693 5696 5698 5703 5710 5717 5722 5727 5732 5736 5739 5742 5747 5752 5757 5762 5765 5768 5772 5775 5778 5782 5785 5787 5791 5795 5798 5801 5805 5808 5811 5814 5817 5820 5823 5825 5827 5829 5831 5833 5835 5837 5840 5842 5845 5848 5850 5852 5854 5857 5859 5861 5864 5866 5868 5870 5872 5874 5876 5878 5880 5882 5884 5885 5886 5887 5888 5888 5889 5889 5890 5891 5892 5893 5894 5895
5639 5645 5651 5658 5662 5664 5669 5676 5681 5686 5690 5693 5693 5698 5705 5711 5715 5721 5727 5732 5735 5737 5741 5746 5750 5756 5761 5764 5769 5773 5776 5780 5783 5785 5788 5792 5795 5798 5802 5806 5809 5812 5815 5818 5820 5822 5824 5826 5828 5830 5832 5834 5836 5839 5841 5843 5846 5848 5851 5853 5855 5858 5860 5862 5864 5865 5867 5869 5871 5873 5875 5877 5879 5881 5882 5884 5885 5886 5887 5887 5888 5889 5890 5891 5892 5893
5637 5643 5649 5655 5659 5663 5668 5672 5677 5681 5685 5687 5689 5692 5697 5703 5710 5715 5721 5726 5728 5729 5734 5740 5744 5750 5755 5760 5765 5769 5773 5777 5780 5783 5786 5789 5792 5795 5799 5803 5806 5809 5811 5814 5816 5818 5820 5822 5825 5827 5829 5831 5833 5835 5837 5840 5842 5844 5847 5849 5851 5853 5855 5858 5859 5861 5863 5865 5866 5868 5870 5872 5874 5876 5878 5879 5881 5882 5883 5884 5885 5886 5887 5888 5889 5890
5634 5638 5644 5649 5656 5661 5662 5665 5670 5675 5677 5679 5682 5685 5691 5697 5704 5710 5717 5723 5723 5721 5724 5732 5738 5742 5748 5753 5758 5764 5769 5773 5776 5779 5783 5787 5790 5794 5797 5800 5802 5805 5808 5810 5812 5815 5817 5819 5821 5824 5826 5828 5830 5832 5834 5837 5839 5841 5843 5845 5847 5849 5851 5853 5855 5857 5859 5860 5862 5864 5865 5867 5869 5871 5873 5875 5876 5878 5879 5881 5882 5883 5884 5885 5886 5887
5631 5634 5639 5644 5650 5653 5654 5660 5667 5670 5670 5673 5677 5682 5688 5694 5700 5706 5712 5718 5719 5718 5719 5724 5729 5735 5741 5746 5751 5758 5764 5768 5771 5775 5778 5782 5787 5790 5794 5797 5799 5802 5804 5806 5808 5811 5813 5816 5818 5820 5822 5824 5827 5829 5831 5834 5836 5838 5839 5841 5844 5846 5848 5850 5851 5853 5855 5856 5858 5860 5861 5863 5865 5867 5868 5870 5872 5873 5875 5876 5878 5879 5880 5881 5882 5884
5629 5631 5635 5641 5645 5647 5650 5657 5663 5664 5664 5670 5676 5682 5688 5693 5698 5703 5708 5712 5716 5717 5719 5721 5725 5729 5735 5740 5744 5750 5757 5762 5766 5770 5774 5777 5781 5785 5788 5791 5794 5797 5800 5802 5804 5806 5809 5812 5815 5817 5819 5821 5824 5826 5828 5831 5833 5835 5837 5839 5841 5843 5845 5847 5848 5850 5852 5853 5855 5856 5858 5860 5861 5863 5865 5866 5868 5869 5870 5872 5873 5874 5876 5877 5878 5880
5628 5630 5632 5636 5640 5644 5649 5656 5659 5659 5663 5671 5678 5682 5686 5690 5696 5702 5706 5709 5713 5715 5718 5720 5723 5726 5730 5735 5739 5744 5749 5755 5760 5764 5769 5773 5776 5780 5783 5786 5789 5792 5795 5798 5800 5802 5805 5808 5811 5813 5816 5818 5821 5823 5825 5828 5830 5832 5835 5837 5838 5840 5842 5844 5846 5847 5849 5851 5852 5854 5855 5857 5858 5860 5861 5862 5863 5865 5866 5867 5869 5870 5872 5873 5874 5875
5627 5629 5630 5632 5635 5641 5648 5653 5656 5658 5663 5671 5676 5679 5683 5687 5693 5698 5703 5706 5709 5712 5715 5717 5721 5724 5727 5730 5735 5739 5743 5749 5754 5759 5763 5768 5772 5775 5778 5781 5784 5788 5791 5794 5797 5799 5801 5803 5807 5810 5812 5814 5817 5820 5822 5824 5827 5830 5832 5834 5836 5837 5839 5841 5843 5845 5846 5848 5850 5851 5853 5854 5855 5857 5858 5859 5860 5861 5863 5864 5865 5866 5867 5869 5870 5871
5625 5627 5629 5631 5634 5639 5644 5648 5650 5654 5659 5666 5670 5675 5680 5685 5690 5695 5698 5701 5704 5708 5710 5713 5717 5721 5724 5728 5732 5736 5740 5744 5749 5753 5758 5763 5767 5771 5774 5777 5780 5783 5786 5790 5792 5795 5798 5800 5802 5805 5808 5810 5813 5816 5818 5821 5823 5826 5828 5830 5832 5834 5835 5837 5839 5841 5843 5845 5846 5848 5849 5851 5852 5853 5854 5856 5857 5858 5859 5860 5862 5863 5864 5865 5866 5867
5625 5627 5629 5631 5634 5638 5641 5644 5647 5651 5656 5661 5666 5671 5676 5681 5686 5690 5694 5697 5700 5704 5706 5709 5713 5717 5720 5724 5729 5732 5736 5740 5744 5748 5753 5757 5762 5767 5770 5773 5776 5779 5782 5785 5788 5791 5794 5796 5798 5800 5803 5806 5809 5811 5814 5817 5819 5821 5823 5825 5827 5829 5831 5833 5835 5837 5839 5841 5842 5844 5845 5847 5848 5849 5851 5853 5854 5855 5855 5856 5858 5859 5860 5861 5862 5863